Main page
METAR-TAF:

METAR-TAF

Airports :

Wattisham Flying Station

Wattisham, England

latitude: 52-07N, longitude: 000-58E, elevation: 87 m

Current weather observation

The report was made 44 minutes ago, at 19:20 UTC
Wind 9 kt from the West
Temperature 5°C
Humidity 93%
Pressure 1020 hPa
Visibility 10 km or more

METAR: EGUW 291920Z AUTO 26009KT 9999 NCD 05/04 Q1020

Time: 20:04 (20:04 UTC)


TAF: missing

Weather observations and forecasts of more than 4000 airports (METAR and TAF reports).

The available stations are represented by yellow and red dots on the map.

Hover mouse over dot to see the name of the station.

Then click to see weather observations and forecasts.

To change the map : click on the green buttons with a black cross to zoom in, on the green button with a dash to zoom out, or on the green arrows for adjacent maps.


METAR-TAF: